FW2365 Weather Reports


Display with metric or nautical units.
time (UTC)temp
F
wind
direction
speed
MPH
gust
MPH
rain 1hr
in
rain 24hr
in
rain mn
in
humidity
%
barometer
mb
20260510152012 72 292 0.0 0.0 0.00 0.00 0.00 41 1010.4
20260510151512 71 292 0.0 2.0 0.00 0.00 0.00 40 1010.4
20260510151011 71 163 0.0 2.0 0.00 0.00 0.00 40 1010.4
20260510150514 71 304 0.0 5.0 0.00 0.00 0.00 43 1010.3
20260510150013 71 304 0.0 10.0 0.00 0.00 0.00 43 1010.4
20260510145512 71 293 5.0 10.0 0.00 0.00 0.00 40 1010.3
20260510145010 71 304 5.0 9.0 0.00 0.00 0.00 41 1010.4
20260510144515 71 314 5.0 9.0 0.00 0.00 0.00 40 1010.5
20260510144013 71 289 5.0 10.0 0.00 0.00 0.00 41 1010.5
20260510143509 71 270 5.0 11.0 0.00 0.00 0.00 40 1010.5
20260510143008 72 298 4.0 11.0 0.00 0.00 0.00 38 1010.6
20260510142509 73 284 6.0 11.0 0.00 0.00 0.00 38 1010.5
20260510142008 74 314 3.0 8.0 0.00 0.00 0.00 33 1010.6
20260510141508 74 261 0.0 1.0 0.00 0.00 0.00 32 1010.6
20260510141008 74 261 0.0 7.0 0.00 0.00 0.00 28 1010.5
20260510140507 74 170 1.0 7.0 0.00 0.00 0.00 30 1010.6
20260510140009 74 223 0.0 4.0 0.00 0.00 0.00 28 1010.7
20260510135506 74 159 1.0 4.0 0.00 0.00 0.00 28 1010.7
20260510135009 75 121 1.0 4.0 0.00 0.00 0.00 28 1010.9
20260510134505 74 278 2.0 4.0 0.00 0.00 0.00 28 1011.0
20260510134002 74 147 1.0 4.0 0.00 0.00 0.00 32 1011.1
20260510133502 73 66 0.0 4.0 0.00 0.00 0.00 32 1011.1
20260510133100 73 6 1.0 3.0 0.00 0.00 0.00 34 1011.2
20260510132559 72 51 0.0 4.0 0.00 0.00 0.00 34 1011.3
20260510132059 72 142 1.0 4.0 0.00 0.00 0.00 34 1011.4
20260510131557 72 142 2.0 6.0 0.00 0.00 0.00 32 1011.5
20260510131056 72 174 2.0 6.0 0.00 0.00 0.00 34 1011.5
20260510130556 72 283 0.0 2.0 0.00 0.00 0.00 43 1011.7
20260510125555 72 283 2.0 4.0 0.00 0.00 0.00 39 1011.8
20260510125054 72 309 0.0 5.0 0.00 0.00 0.00 34 1011.9
20260510124559 72 309 2.0 5.0 0.00 0.00 0.00 36 1011.8
20260510124053 72 309 2.0 5.0 0.00 0.00 0.00 38 1011.9
20260510123554 72 314 0.0 6.0 0.00 0.00 0.00 33 1012.0
20260510123055 72 309 5.0 6.0 0.00 0.00 0.00 37 1012.0
20260510122551 72 320 3.0 6.0 0.00 0.00 0.00 37 1012.0
20260510122051 72 341 1.0 6.0 0.00 0.00 0.00 37 1012.0
20260510121550 72 322 2.0 8.0 0.00 0.00 0.00 37 1012.2
20260510121050 72 314 3.0 8.0 0.00 0.00 0.00 36 1012.2
20260510120551 72 304 1.0 8.0 0.00 0.00 0.00 37 1012.3
20260510120049 72 289 3.0 6.0 0.00 0.00 0.00 38 1012.4
20260510115547 71 320 1.0 6.0 0.00 0.00 0.00 39 1012.4
20260510115046 71 280 4.0 9.0 0.00 0.00 0.00 40 1012.5
20260510114546 71 309 2.0 9.0 0.00 0.00 0.00 37 1012.6
20260510114045 71 309 4.0 10.0 0.00 0.00 0.00 37 1012.6
20260510113546 71 288 5.0 10.0 0.00 0.00 0.00 38 1012.7
20260510113052 71 326 4.0 8.0 0.00 0.00 0.00 39 1012.7
20260510112542 70 331 2.0 9.0 0.00 0.00 0.00 40 1012.8
20260510112042 71 314 4.0 10.0 0.00 0.00 0.00 39 1012.9
20260510111541 71 288 2.0 10.0 0.00 0.00 0.00 38 1012.9
20260510111040 70 318 5.0 9.0 0.00 0.00 0.00 39 1013.0
20260510110541 71 323 5.0 9.0 0.00 0.00 0.00 40 1013.0
20260510110039 70 314 4.0 9.0 0.00 0.00 0.00 39 1013.1
20260510105538 70 290 3.0 9.0 0.00 0.00 0.00 40 1013.2
20260510105037 70 290 2.0 8.0 0.00 0.00 0.00 42 1013.3
20260510104536 69 334 3.0 8.0 0.00 0.00 0.00 42 1013.4
20260510104034 69 295 5.0 10.0 0.00 0.00 0.00 45 1013.5
20260510103533 69 309 4.0 10.0 0.00 0.00 0.00 41 1013.6
20260510103036 69 12 3.0 8.0 0.00 0.00 0.00 44 1013.6
20260510102533 69 309 1.0 4.0 0.00 0.00 0.00 46 1013.7
20260510102030 69 318 0.0 8.0 0.00 0.00 0.00 46 1013.8
20260510101530 68 324 4.0 8.0 0.00 0.00 0.00 47 1013.8
20260510101028 68 309 4.0 6.0 0.00 0.00 0.00 47 1014.0
20260510100528 67 304 2.0 6.0 0.00 0.00 0.00 48 1014.0
20260510100026 66 309 2.0 6.0 0.00 0.00 0.00 50 1014.1
20260510095524 66 285 2.0 6.0 0.00 0.00 0.00 51 1014.1
20260510095022 65 296 4.0 6.0 0.00 0.00 0.00 55 1014.2
20260510094521 65 309 1.0 6.0 0.00 0.00 0.00 56 1014.3
20260510094019 64 287 4.0 9.0 0.00 0.00 0.00 57 1014.3
20260510093519 64 288 5.0 9.0 0.00 0.00 0.00 53 1014.4
20260510093025 64 304 4.0 9.0 0.00 0.00 0.00 51 1014.4
20260510092518 64 309 3.0 9.0 0.00 0.00 0.00 51 1014.5
20260510092017 64 320 5.0 9.0 0.00 0.00 0.00 52 1014.5
20260510091520 64 296 5.0 9.0 0.00 0.00 0.00 52 1014.6
20260510091017 64 295 5.0 8.0 0.00 0.00 0.00 52 1014.7
20260510090515 64 295 4.0 8.0 0.00 0.00 0.00 50 1014.7
20260510090016 63 289 2.0 6.0 0.00 0.00 0.00 54 1014.8
20260510085514 63 325 2.0 6.0 0.00 0.00 0.00 56 1014.8
20260510085012 63 309 0.0 6.0 0.00 0.00 0.00 57 1014.9
20260510084514 63 304 1.0 4.0 0.00 0.00 0.00 56 1015.0
20260510084009 62 278 0.0 3.0 0.00 0.00 0.00 58 1015.1
20260510083511 62 278 0.0 3.0 0.00 0.00 0.00 59 1015.2
20260510083008 61 337 0.0 2.0 0.00 0.00 0.00 60 1015.2
20260510082505 61 337 0.0 2.0 0.00 0.00 0.00 58 1015.3
20260510082004 61 359 0.0 0.0 0.00 0.00 0.00 60 1015.3
20260510081504 61 359 0.0 2.0 0.00 0.00 0.00 58 1015.3
20260510081004 61 21 0.0 2.0 0.00 0.00 0.00 60 1015.4
20260510080505 61 134 0.0 2.0 0.00 0.00 0.00 61 1015.4
20260510080002 60 134 0.0 0.0 0.00 0.00 0.00 60 1015.5
20260510075601 60 134 0.0 0.0 0.00 0.00 0.00 59 1015.6
20260510075100 59 134 0.0 4.0 0.00 0.00 0.00 60 1015.6
20260510074600 59 134 1.0 4.0 0.00 0.00 0.00 58 1015.6
20260510074101 59 32 0.0 3.0 0.00 0.00 0.00 63 1015.7
20260510073557 59 331 0.0 2.0 0.00 0.00 0.00 63 1015.7
20260510073114 58 120 0.0 2.0 0.00 0.00 0.00 66 1015.8
20260510072554 58 119 0.0 0.0 0.00 0.00 0.00 67 1015.9
20260510072053 58 360 0.0 2.0 0.00 0.00 0.00 66 1015.9
20260510071552 57 360 0.0 3.0 0.00 0.00 0.00 66 1016.0
20260510071050 57 20 0.0 3.0 0.00 0.00 0.00 69 1016.1
20260510070549 56 149 0.0 3.0 0.00 0.00 0.00 66 1016.2
20260510070053 56 149 0.0 3.0 0.00 0.00 0.00 69 1016.2
20260510065546 56 149 0.0 2.0 0.00 0.00 0.00 68 1016.3
20260510065045 56 149 0.0 2.0 0.00 0.00 0.00 71 1016.2
20260510064559 55 149 0.0 1.0 0.00 0.00 0.00 72 1016.3
20260510064040 54 149 0.0 1.0 0.00 0.00 0.00 71 1016.4
20260510063539 54 149 0.0 2.0 0.00 0.00 0.00 72 1016.5
20260510063038 54 149 0.0 2.0 0.00 0.00 0.00 72 1016.6
20260510062536 53 149 0.0 1.0 0.00 0.00 0.00 71 1016.7
20260510062036 53 151 0.0 0.0 0.00 0.00 0.00 72 1016.7
20260510061534 53 151 0.0 2.0 0.00 0.00 0.00 72 1016.9
20260510061033 53 151 0.0 2.0 0.00 0.00 0.00 75 1017.0
20260510060537 53 151 0.0 2.0 0.00 0.00 0.00 75 1017.1
20260510060033 52 151 0.0 0.0 0.00 0.00 0.00 75 1017.2
20260510055530 52 151 0.0 0.0 0.00 0.00 0.00 75 1017.1
20260510055031 51 151 0.0 3.0 0.00 0.00 0.00 77 1017.2
20260510054528 51 151 0.0 3.0 0.00 0.00 0.00 77 1017.4
20260510054025 50 151 0.0 3.0 0.00 0.00 0.00 78 1017.5
20260510053527 50 176 1.0 3.0 0.00 0.00 0.00 77 1017.5
20260510053038 50 176 0.0 3.0 0.00 0.00 0.00 76 1017.5
20260510052523 50 176 0.0 0.0 0.00 0.00 0.00 79 1017.5
20260510052021 49 176 0.0 0.0 0.00 0.00 0.00 81 1017.5
20260510051526 48 176 0.0 0.0 0.00 0.00 0.00 81 1017.4
20260510051024 48 176 0.0 0.0 0.00 0.00 0.00 82 1017.4
20260510050518 47 176 0.0 0.0 0.00 0.00 0.00 84 1017.4
20260510050017 47 176 0.0 0.0 0.00 0.00 0.00 84 1017.4
20260510045516 46 176 0.0 0.0 0.00 0.00 0.00 86 1017.4
20260510045015 46 176 0.0 0.0 0.00 0.00 0.00 86 1017.5
20260510044513 45 176 0.0 0.0 0.00 0.00 0.00 86 1017.6
20260510044011 45 176 0.0 0.0 0.00 0.00 0.00 86 1017.6
20260510043510 45 176 0.0 0.0 0.00 0.00 0.00 88 1017.6
20260510043010 44 176 0.0 0.0 0.00 0.00 0.00 88 1017.7
20260510042509 44 176 0.0 0.0 0.00 0.00 0.00 87 1017.8
20260510042007 44 175 0.0 2.0 0.00 0.00 0.00 87 1017.9
20260510041506 44 309 0.0 2.0 0.00 0.00 0.00 87 1018.0
20260510041006 44 309 0.0 0.0 0.00 0.00 0.00 87 1018.0
20260510040505 44 309 0.0 0.0 0.00 0.00 0.00 86 1018.0
20260510040005 44 309 0.0 0.0 0.00 0.00 0.00 86 1018.0
20260510035503 44 309 0.0 0.0 0.00 0.00 0.00 86 1018.1
20260510035002 45 309 0.0 0.0 0.00 0.00 0.00 86 1018.1
20260510034502 45 309 0.0 0.0 0.00 0.00 0.00 85 1018.2
20260510034001 45 309 0.0 0.0 0.00 0.00 0.00 85 1018.1
20260510033500 45 176 0.0 0.0 0.00 0.00 0.00 85 1018.1
20260510033106 45 176 0.0 0.0 0.00 0.00 0.00 85 1018.1
20260510032559 45 176 0.0 0.0 0.00 0.00 0.00 85 1018.3
20260510032059 45 176 0.0 0.0 0.00 0.00 0.00 85 1018.3
20260510031600 45 176 0.0 0.0 0.00 0.00 0.00 84 1018.3
20260510031057 45 176 0.0 0.0 0.00 0.00 0.00 84 1018.3
20260510030559 46 176 0.0 0.0 0.00 0.00 0.00 84 1018.3
20260510030109 46 176 0.0 0.0 0.00 0.00 0.00 84 1018.3
20260510025556 46 176 0.0 0.0 0.00 0.00 0.00 84 1018.3
20260510025056 46 176 0.0 0.0 0.00 0.00 0.00 83 1018.3
20260510024559 46 176 0.0 2.0 0.00 0.00 0.00 83 1018.3
20260510024054 46 176 0.0 2.0 0.00 0.00 0.00 84 1018.3
20260510023554 46 176 0.0 2.0 0.00 0.00 0.00 84 1018.4
20260510023054 46 176 0.0 0.0 0.00 0.00 0.00 84 1018.5
20260510022558 46 176 0.0 0.0 0.00 0.00 0.00 84 1018.5
20260510022053 46 176 0.0 0.0 0.00 0.00 0.00 83 1018.5
20260510021601 46 176 0.0 0.0 0.00 0.00 0.00 82 1018.4
20260510021051 47 176 0.0 0.0 0.00 0.00 0.00 82 1018.4
20260510020551 47 176 0.0 0.0 0.00 0.00 0.00 81 1018.5
20260510020051 47 176 0.0 0.0 0.00 0.00 0.00 81 1018.5
20260510015550 47 176 0.0 2.0 0.00 0.00 0.00 82 1018.5
20260510015050 46 176 1.0 2.0 0.00 0.00 0.00 82 1018.5
20260510014553 47 176 0.0 0.0 0.00 0.00 0.00 81 1018.5
20260510014048 47 176 0.0 0.0 0.00 0.00 0.00 81 1018.5
20260510013552 47 176 0.0 0.0 0.00 0.00 0.00 80 1018.5
20260510013048 48 176 0.0 0.0 0.00 0.00 0.00 80 1018.5
20260510012545 48 309 0.0 0.0 0.00 0.00 0.00 79 1018.5
20260510012045 48 176 0.0 0.0 0.00 0.00 0.00 79 1018.4
20260510011544 48 309 0.0 0.0 0.00 0.00 0.00 79 1018.5
20260510011044 48 175 0.0 0.0 0.00 0.00 0.00 79 1018.5
20260510010543 48 309 0.0 0.0 0.00 0.00 0.00 79 1018.5
20260510010046 48 309 0.0 0.0 0.00 0.00 0.00 79 1018.6
20260510005542 48 309 0.0 0.0 0.00 0.00 0.00 78 1018.6
20260510005041 48 309 0.0 0.0 0.00 0.00 0.00 78 1018.7
20260510004541 48 309 0.0 3.0 0.00 0.00 0.00 78 1018.7
20260510004040 48 309 1.0 3.0 0.00 0.00 0.00 78 1018.8
20260510003540 49 309 0.0 2.0 0.00 0.00 0.00 77 1018.7
20260510003048 49 309 0.0 3.0 0.00 0.00 0.00 77 1018.8
20260510002537 49 309 2.0 3.0 0.00 0.00 0.00 77 1018.8
20260510002036 49 309 0.0 3.0 0.00 0.00 0.00 76 1018.9
20260510001535 50 309 0.0 3.0 0.00 0.00 0.00 76 1019.0
20260510001035 50 309 0.0 0.0 0.00 0.00 0.00 75 1019.1
20260510000534 50 309 0.0 0.0 0.00 0.00 0.00 76 1019.2
20260510000034 50 309 0.0 0.0 0.00 0.00 0.00 75 1019.2
20260509235534 50 309 0.0 0.0 0.00 0.00 0.00 75 1019.3
20260509235032 50 309 0.0 0.0 0.00 0.00 0.00 75 1019.3
20260509234532 50 309 0.0 0.0 0.00 0.00 0.00 75 1019.4
20260509234030 50 309 0.0 0.0 0.00 0.00 0.00 74 1019.5
20260509233529 50 309 0.0 0.0 0.00 0.00 0.00 73 1019.5
20260509233029 51 176 0.0 0.0 0.00 0.00 0.00 73 1019.5
20260509232528 51 176 0.0 0.0 0.00 0.00 0.00 73 1019.5
20260509232029 51 176 0.0 0.0 0.00 0.00 0.00 73 1019.6
20260509231528 51 176 0.0 0.0 0.00 0.00 0.00 73 1019.6
20260509231130 51 176 0.0 0.0 0.00 0.00 0.00 73 1019.5
20260509230526 51 176 0.0 0.0 0.00 0.00 0.00 72 1019.5
20260509230026 52 176 0.0 0.0 0.00 0.00 0.00 72 1019.5
20260509225524 52 176 0.0 0.0 0.00 0.00 0.00 71 1019.5
20260509225023 52 176 0.0 0.0 0.00 0.00 0.00 70 1019.5
20260509224523 52 176 0.0 0.0 0.00 0.00 0.00 70 1019.5
20260509224022 52 176 0.0 0.0 0.00 0.00 0.00 70 1019.6
20260509223523 52 176 0.0 0.0 0.00 0.00 0.00 70 1019.6
20260509223022 53 176 0.0 3.0 0.00 0.00 0.00 69 1019.6
20260509222520 53 176 1.0 3.0 0.00 0.00 0.00 69 1019.7
20260509222020 53 157 0.0 2.0 0.00 0.00 0.00 69 1019.7
20260509221521 53 157 0.0 0.0 0.00 0.00 0.00 69 1019.7
20260509221019 53 157 0.0 0.0 0.00 0.00 0.00 68 1019.6
20260509220518 54 157 0.0 3.0 0.00 0.00 0.00 68 1019.6
20260509220025 54 157 0.0 3.0 0.00 0.00 0.00 67 1019.7
20260509215518 54 157 0.0 3.0 0.00 0.00 0.00 66 1019.7
20260509215016 54 283 1.0 4.0 0.00 0.00 0.00 66 1019.6
20260509214516 54 255 0.0 4.0 0.00 0.00 0.00 66 1019.6
20260509214018 54 304 2.0 4.0 0.00 0.00 0.00 67 1019.6
20260509213516 54 170 0.0 4.0 0.00 0.00 0.00 67 1019.6
20260509213017 54 170 1.0 4.0 0.00 0.00 0.00 66 1019.6
20260509212514 54 176 1.0 4.0 0.00 0.00 0.00 66 1019.6
20260509212014 54 176 0.0 4.0 0.00 0.00 0.00 66 1019.6
20260509211516 54 139 0.0 2.0 0.00 0.00 0.00 66 1019.7
20260509211014 54 139 0.0 4.0 0.00 0.00 0.00 66 1019.8
20260509210513 55 139 1.0 4.0 0.00 0.00 0.00 65 1019.7
20260509210014 55 186 0.0 5.0 0.00 0.00 0.00 65 1019.8
20260509205513 55 186 1.0 5.0 0.00 0.00 0.00 64 1019.7
20260509205013 55 207 0.0 0.0 0.00 0.00 0.00 64 1019.8
20260509204514 55 207 0.0 1.0 0.00 0.00 0.00 63 1019.8
20260509204013 56 207 0.0 4.0 0.00 0.00 0.00 63 1019.7
20260509203516 56 253 1.0 4.0 0.00 0.00 0.00 63 1019.7
20260509203023 56 314 2.0 4.0 0.00 0.00 0.00 63 1019.8
20260509202515 56 268 0.0 2.0 0.00 0.00 0.00 62 1019.8
20260509202013 56 268 0.0 5.0 0.00 0.00 0.00 62 1019.9
20260509201513 56 272 0.0 5.0 0.00 0.00 0.00 62 1019.9
20260509201013 56 262 1.0 4.0 0.00 0.00 0.00 62 1019.9
20260509200515 56 251 0.0 3.0 0.00 0.00 0.00 62 1019.9
20260509200012 57 246 0.0 5.0 0.00 0.00 0.00 61 1020.0
20260509195512 57 249 1.0 5.0 0.00 0.00 0.00 61 1020.0
20260509195011 57 217 0.0 2.0 0.00 0.00 0.00 61 1020.0
20260509194511 57 217 1.0 3.0 0.00 0.00 0.00 60 1020.0
20260509194012 57 282 0.0 3.0 0.00 0.00 0.00 60 1020.0
20260509193516 57 282 1.0 4.0 0.00 0.00 0.00 59 1020.0
20260509193011 58 262 2.0 4.0 0.00 0.00 0.00 59 1019.9
20260509192510 58 270 1.0 3.0 0.00 0.00 0.00 58 1019.9
20260509192010 58 185 1.0 9.0 0.00 0.00 0.00 58 1019.8
20260509191510 58 320 3.0 9.0 0.00 0.00 0.00 58 1019.8
20260509191012 58 259 2.0 4.0 0.00 0.00 0.00 58 1019.7
20260509190509 58 299 0.0 4.0 0.00 0.00 0.00 57 1019.6
20260509190009 59 344 2.0 4.0 0.00 0.00 0.00 57 1019.6
20260509185509 59 297 0.0 3.0 0.00 0.00 0.00 57 1019.7
20260509185008 59 260 0.0 4.0 0.00 0.00 0.00 57 1019.6
20260509184509 59 266 0.0 4.0 0.00 0.00 0.00 56 1019.5
20260509184008 59 13 1.0 5.0 0.00 0.00 0.00 56 1019.5
20260509183510 59 220 0.0 5.0 0.00 0.00 0.00 56 1019.5
20260509183008 60 133 2.0 5.0 0.00 0.00 0.00 55 1019.5
20260509182507 60 304 0.0 5.0 0.00 0.00 0.00 55 1019.4
20260509182013 60 319 0.0 6.0 0.00 0.00 0.00 55 1019.4
20260509181507 60 318 3.0 8.0 0.00 0.00 0.00 54 1019.4
20260509181007 60 304 3.0 9.0 0.00 0.00 0.00 54 1019.3
20260509180511 60 268 4.0 9.0 0.00 0.00 0.00 54 1019.3
20260509180007 61 48 1.0 9.0 0.00 0.00 0.00 54 1019.3
20260509175506 61 3 1.0 7.0 0.00 0.00 0.00 54 1019.3
20260509175006 61 256 2.0 7.0 0.00 0.00 0.00 54 1019.3
20260509174514 61 323 1.0 7.0 0.00 0.00 0.00 54 1019.2
20260509174007 61 333 3.0 7.0 0.00 0.00 0.00 53 1019.3
20260509173504 61 93 2.0 10.0 0.00 0.00 0.00 54 1019.2
20260509173005 62 9 2.0 10.0 0.00 0.00 0.00 53 1019.1
20260509172507 62 209 2.0 8.0 0.00 0.00 0.00 53 1019.1
20260509172007 62 103 1.0 6.0 0.00 0.00 0.00 53 1019.0
20260509171505 62 309 2.0 6.0 0.00 0.00 0.00 54 1019.0
20260509171003 62 314 1.0 5.0 0.00 0.00 0.00 54 1019.0
20260509170503 62 286 0.0 3.0 0.00 0.00 0.00 56 1019.1
20260509170003 62 309 0.0 0.0 0.00 0.00 0.00 56 1019.1
20260509165504 62 309 0.0 0.0 0.00 0.00 0.00 56 1019.0
20260509165003 62 309 0.0 0.0 0.00 0.00 0.00 57 1019.0
20260509164503 63 309 0.0 2.0 0.00 0.00 0.00 57 1019.0
20260509164001 63 309 0.0 2.0 0.00 0.00 0.00 56 1019.0
20260509163501 63 309 0.0 3.0 0.00 0.00 0.00 56 1019.0
20260509163001 63 309 0.0 3.0 0.00 0.00 0.00 54 1019.0
20260509162504 63 309 1.0 3.0 0.00 0.00 0.00 55 1019.1
20260509162101 63 328 0.0 2.0 0.00 0.00 0.00 55 1019.1
20260509161604 63 212 0.0 3.0 0.00 0.00 0.00 54 1019.2
20260509161059 63 212 0.0 3.0 0.00 0.00 0.00 55 1019.2
20260509160600 64 156 0.0 4.0 0.00 0.00 0.00 53 1019.2
20260509160059 64 153 0.0 4.0 0.00 0.00 0.00 53 1019.3
20260509155559 64 274 1.0 5.0 0.00 0.00 0.00 52 1019.3
20260509155059 64 304 2.0 5.0 0.00 0.00 0.00 53 1019.2
20260509154607 64 137 0.0 4.0 0.00 0.00 0.00 53 1019.2
20260509154058 64 297 1.0 4.0 0.00 0.00 0.00 55 1019.3
20260509153557 64 297 1.0 6.0 0.00 0.00 0.00 54 1019.3
20260509153058 64 291 4.0 6.0 0.00 0.00 0.00 53 1019.4
20260509152556 65 269 3.0 6.0 0.00 0.00 0.00 55 1019.5
20260509152056 64 304 2.0 8.0 0.00 0.00 0.00 55 1019.5